Regional Weather Roundup
Issued by NWS Upton, NY

Current Version | Previous Version | Text Only | Print | Product List | Glossary On
Versions: 1 2 3 4 5 6 7 8 9 10 11 12 13 14 15 16 17 18 19 20 21 22 23 24 25 26 27
000 ASUS41 KOKX 021508 RWROKX REGIONAL WEATHER ROUNDUP NATIONAL WEATHER SERVICE NEW YORK NY 1000 AM EST FRI DEC 02 2016 NOTE: "FAIR" INDICATES FEW OR NO CLOUDS BELOW 12,000 FEET WITH NO SIGNIFICANT WEATHER AND/OR OBSTRUCTIONS TO VISIBILITY. NYZ071-072-176-178-NJZ106-104-021600- NEW YORK CITY METRO AREA CITY SKY/WX TMP DP RH WIND PRES REMARKS Central Park MOSUNNY 44 29 55 VRB7G22 29.95R Wall St Helipt MOSUNNY 47 34 60 W9G21 29.94R Bronx Bot Gard N/A 45 30 57 W10 29.93R LaGuardia APRT PTSUNNY 47 30 51 W15 29.92R Kennedy INTL PTSUNNY 47 30 51 W16 29.94R Breezy Point N/A 45 N/A N/A W14G23 N/A Newark/Liberty PTSUNNY 46 30 53 W20G29 29.93R Teterboro MOSUNNY 45 29 53 W16G26 29.91S $$ NYZ177-179-078>081-021600- LONG ISLAND NEW YORK CITY SKY/WX TMP DP RH WIND PRES REMARKS Jones Beach N/A 45 N/A N/A W20G26 N/A Matinecock PT NOT AVBL Farmingdale SUNNY 46 31 55 W12G21 29.92R MacArthur/ISP PTSUNNY 48 31 51 W20 29.90R Shirley SUNNY 47 32 56 W14 29.90S Westhampton SUNNY 46 30 53 W15 29.90S Southampton N/A 46 34 61 W12 29.86R Bridgehampton NOT AVBL East Hampton N/A 45 32 60 W12G17 29.88R Montauk N/A 46 35 65 W14G23 29.87 $$ NYZ052-065-067-021600- HUDSON VALLEY CITY SKY/WX TMP DP RH WIND PRES REMARKS White Plains MOSUNNY 44 30 57 W12G18 29.88S Newburgh MOSUNNY 41 34 75 W14 29.88S Montgomery MOSUNNY 46 32 58 W8 29.88R Poughkeepsie SUNNY 44 31 60 SW10 29.86S Albany PTSUNNY 45 32 60 W8 29.81R $$ NJZ001-105-106-008-010-013-015-019>022-104-021600- NEW JERSEY CITY SKY/WX TMP DP RH WIND PRES REMARKS Newark/Liberty PTSUNNY 46 30 53 W20G29 29.93R Teterboro MOSUNNY 45 29 53 W16G26 29.91S Caldwell SUNNY 44 30 57 W15 29.93R Somerville MOSUNNY 47 30 51 MISG 29.93S Linden N/A 46 31 54 W15G25 29.93F Sussex MOSUNNY 43 32 65 SW7 29.90R Andover N/A 40 31 70 S6 29.92S Trenton SUNNY 45 29 53 W13G22 29.96S Millville SUNNY 47 31 53 W15G23 30.01S Atlantic City SUNNY 47 28 47 W14G23 30.00S Wrightstown SUNNY 46 30 53 NW16 29.95S Toms River SUNNY 46 31 55 W17G25 29.97S Belmar SUNNY 47 30 51 W15G22 29.96S $$ PAZ047>061-062-071-021600- EASTERN PENNSYLVANIA CITY SKY/WX TMP DP RH WIND PRES REMARKS Philadelphia PTSUNNY 48 28 46 NW21G28 30.00R Allentown MOSUNNY 45 30 55 W15G26 29.96S Scranton CLOUDY 40 31 70 SW16G23 29.91R WCI 31 $$ CTZ002-004>006-009-010-012-RIZ004-006-007-MAZ004-011-015-021600- SOUTHERN NEW ENGLAND IN CT CITY SKY/WX TMP DP RH WIND PRES REMARKS Bradley INTL MOSUNNY 45 32 60 SW6 29.84R Hartford PTSUNNY 44 31 60 SW5 29.85S Danbury MOSUNNY 45 31 58 W14G22 29.88R Wtrbury/Oxford MOSUNNY 43 28 56 MISG 29.87R Bridgeport SUNNY N/A N/A N/A W16 29.88S Meriden SUNNY 47 30 51 W7 29.86S New Haven MOSUNNY 44 31 60 W7 29.88R Chester N/A 43 30 61 W8G16 29.86R Groton SUNNY 49 33 54 W12G17 29.86R Wilimantic CLOUDY 45 31 58 W9 29.85S IN RI CITY SKY/WX TMP DP RH WIND PRES REMARKS Providence MOSUNNY 47 31 53 W12 29.82S Block Island SUNNY 46 36 68 W16G22 29.86R Westerly SUNNY 47 29 49 VRB7 29.86R IN MA CITY SKY/WX TMP DP RH WIND PRES REMARKS Boston MOSUNNY 46 33 60 W15G21 29.78F Worcester SUNNY 41 29 62 W17G28 29.78R Westfield CLOUDY 43 32 65 S5 29.82S Provincetown SUNNY 46 35 65 W15G22 29.79S Nantucket PTSUNNY 47 34 60 W18G24 29.82S $$ ANZ330-335-338-340-345-350-353-355-021600- COASTAL MARINE OBSERVATIONS STATION/POSITION TIME SKY/WX TEMP WIND PRES VSBY WAVE AIR SEA DIR/SP/G HT/PER (UTC) (F) (DEG/KT/KT) (MB) (MI) (FT/S) NY HARB ENTRANCE 1450 46 54 290/ 25/ 29 1012.6 4/ 4 20 S FIRE ISLAND 1350 46 55 290/ 23/ 27 1012.6 7/ 6 GREAT SOUTH BAY 1415 44 45 N/A 23 SSW MONTAUK P 1450 46 56 270/ 23/ 27 1011.8 6/ 7 15 E BARNEGAT LI 1430 54 N/A 5/ 4 HUDSON CANYON 1350 49 59 1013.2 7/ 8 KINGS POINT 1436 44 49 1012.8 EXECUTION ROCKS 1445 46 260/ 14/ 19 N/A CENTRAL LI SOUND NOT AVBL EASTERN LI SOUND NOT AVBL ROBBINS REEF 1436 44 270/ 22/ 28 1013.3 $$ >>>>>>>>>>>>>>>>>>>>>>>>>>>> KEY <<<<<<<<<<<<<<<<<<<<<<<<<<< > < > SKY/WX - Sky Condition/Present Weather < > TMP - Temperature in Fahrenheit < > DP - Dew Point in Fahrenheit < > RH - Relative Humidity in Percent < > WIND - Direction (from) and Speed in MPH < > PRES - Mean Sea Level Pressure (inches of Hg) < > WCI - Wind Chill Index < > VSB - VISIBILITY IN MILES < > HX - HEAT INDEX < > TC - TEMPERATURE IN CELSIUS < > VRB - VARIABLE WIND DIRECTION < > < >>>>>>>>>>>>>>>>>>>>>>>>>>>> KEY <<<<<<<<<<<<<<<<<<<<<<<<<<<

USA.gov is the U.S. government's official web portal to all federal, state and local government web resources and services.